This is the latest recevied weather packets stored in our database for station/object KB1JLI. If no packets are shown the sender has not sent any weather packets the latest 1 day(s).
| Time | Temp. | Humidity | Pressure | Rain* | Wind** | Luminosity | Snow |
|---|---|---|---|---|---|---|---|
| 1778035332 | 18.89° C | 59% | 1010 hPa | 0 mm | 2.68 m/s, 187° | 0 W/m² | - |
| 1778035028 | 18.89° C | 59% | 1010 hPa | 0 mm | 0 m/s | 0 W/m² | - |
| 1778034725 | 18.89° C | 58% | 1010 hPa | 0 mm | 1.79 m/s, 178° | 0 W/m² | - |
| 1778034422 | 19.44° C | 58% | 1010 hPa | 0 mm | 0 m/s | 0 W/m² | - |
| 1778034120 | 18.89° C | 59% | 1009.9 hPa | 0 mm | 0.45 m/s, 228° | 0 W/m² | - |
| 1778033818 | 18.89° C | 59% | 1010 hPa | 0 mm | 1.34 m/s, 164° | 0 W/m² | - |
| 1778033514 | 18.89° C | 60% | 1010 hPa | 0 mm | 0 m/s | 0 W/m² | - |
| 1778033211 | 19.44° C | 59% | 1010.1 hPa | 0 mm | 0 m/s | 0 W/m² | - |
| 1778032909 | 19.44° C | 58% | 1009.9 hPa | 0 mm | 0 m/s | 0 W/m² | - |
| 1778032606 | 19.44° C | 57% | 1010.1 hPa | 0 mm | 0.89 m/s, 158° | 0 W/m² | - |
| 1778032304 | 19.44° C | 59% | 1010 hPa | 0 mm | 0.89 m/s, 198° | 0 W/m² | - |
| 1778032001 | 19.44° C | 59% | 1009.7 hPa | 0 mm | 0.45 m/s, 215° | 0 W/m² | - |
| 1778031696 | 19.44° C | 59% | 1009.7 hPa | 0 mm | 0.45 m/s, 104° | 0 W/m² | - |
| 1778031395 | 19.44° C | 59% | 1009.3 hPa | 0 mm | 0.45 m/s, 107° | 0 W/m² | - |
| 1778031092 | 19.44° C | 59% | 1009.2 hPa | 0 mm | 0.45 m/s, 114° | 0 W/m² | - |
| 1778030788 | 19.44° C | 58% | 1009.1 hPa | 0 mm | 0 m/s | 0 W/m² | - |
| 1778030484 | 19.44° C | 58% | 1009.2 hPa | 0 mm | 1.79 m/s, 209° | 0 W/m² | - |
| 1778030182 | 19.44° C | 58% | 1009.2 hPa | 0 mm | 1.34 m/s, 155° | 0 W/m² | - |
| 1778029877 | 19.44° C | 58% | 1009.1 hPa | 0 mm | 2.68 m/s, 199° | 0 W/m² | - |
| 1778029572 | 20° C | 58% | 1008.9 hPa | 0 mm | 0.89 m/s, 256° | 0 W/m² | - |
| 1778029268 | 20° C | 57% | 1008.8 hPa | 0 mm | 1.34 m/s, 194° | 0 W/m² | - |
| 1778028965 | 20° C | 57% | 1008.7 hPa | 0 mm | 0 m/s | 0 W/m² | - |
| 1778028661 | 20° C | 57% | 1008.7 hPa | 0 mm | 0.89 m/s, 176° | 0 W/m² | - |
| 1778028358 | 20° C | 56% | 1008.6 hPa | 0 mm | 3.13 m/s, 237° | 0 W/m² | - |
| 1778028055 | 20° C | 56% | 1008.5 hPa | 0 mm | 1.34 m/s, 210° | 0 W/m² | - |
* Rain latest hour (hover to see other rain measurements)
** Current wind speed in m/s (hover to see current wind gust speed)